Flag for Slovenia Weather past 2 weeks in Kranj, Slovenia

Now
36 °F

Passing clouds.


Feels Like: 36 °F
Forecast: 26 / 40 °F
Wind: 2 mph from North

Location: Ljubljana Airport / Brnik

Current Time: Mar 5, 2015 at 1:41:03 AM

Latest Report: Mar 5, 2015 at 1:00 AM


Visibility: N/A

Pressure: 30.24 "Hg

Humidity: 100%

Dew point: 36 °F

Location of KranjLocation

Historic Weather in Kranj — Graph

°F

Kranj temperature yesterday

Maximum temperature yesterday: 52 °F (at 2:30 PM)
Minimum temperature yesterday: 27 °F (at 3:00 AM)
Average temperature yesterday: 39 °F

Past Weeks' High & Low Weather Summary

 TemperatureHumidityPressure
High54 °F (Mar 3, 3:00 PM)100% (Feb 19, 8:30 AM)30.69 "Hg (Feb 19, 8:30 AM)
Low19 °F (Feb 19, 7:00 AM)33% (Mar 3, 3:30 PM)29.62 "Hg (Feb 22, 3:00 AM)
Average38 °F83%30.01 "Hg
* Reported Midnight between Feb 17 and Feb 18 — Mar 5 12:30 AM, Kranj, Weather by CustomWeather, © 2015

Note: Actual official high and low records may vary slightly from our data, if they occured in-between our weather recording intervals... More about our weather records

Advertising

Kranj weather history for previous 24 hours

 ConditionsComfort  
Time TempWeatherWind HumidityBarometerVisibility
12:30 AM
Thu, Mar 5
37 °FPassing clouds.3 mph87%30.24 "HgN/A
12:00 AM37 °FPassing clouds.10 mph87%30.24 "HgN/A
11:30 PM
Wed, Mar 4
37 °FPassing clouds.8 mph87%30.24 "HgN/A
11:00 PM37 °FPassing clouds.10 mph87%30.24 "HgN/A
10:00 PM37 °FPassing clouds.7 mph93%30.21 "HgN/A
9:30 PM37 °FLight rain. Passing clouds.7 mph93%30.21 "HgN/A
9:00 PM39 °FLight rain. Passing clouds.2 mph87%30.21 "HgN/A
8:30 PM39 °FLight rain. Partly cloudy.12 mph87%30.21 "HgN/A
8:00 PM41 °FLight rain. Partly cloudy.9 mph81%30.18 "HgN/A
7:30 PM43 °FLight rain. Mostly cloudy.15 mph71%30.18 "HgN/A
7:00 PM45 °FLight rain. Mostly cloudy.13 mph61%30.18 "HgN/A
6:30 PM45 °FPartly cloudy.15 mph61%30.15 "HgN/A
6:00 PM46 °FPartly cloudy.14 mph57%30.15 "HgN/A
5:30 PM48 °FBroken clouds.13 mph46%30.12 "HgN/A
5:00 PM48 °FBroken clouds.10 mph62%30.12 "HgN/A
4:30 PM48 °FPartly sunny.9 mph62%30.09 "HgN/A
4:00 PM50 °FPartly sunny.13 mph50%30.09 "HgN/A
3:30 PM50 °FPartly sunny.7 mph43%30.09 "HgN/A
3:00 PM50 °FPartly sunny.3 mph50%30.09 "HgN/A
2:30 PM52 °FBroken clouds.2 mph47%30.09 "HgN/A
2:00 PM50 °FBroken clouds.6 mph50%30.09 "HgN/A
1:30 PM50 °FPartly sunny.7 mph54%30.12 "HgN/A
1:00 PM48 °FPartly sunny.6 mph54%30.12 "HgN/A
12:30 PM46 °FPartly sunny.7 mph57%30.15 "HgN/A
12:00 PM46 °FPartly sunny.5 mph62%30.15 "HgN/A
11:30 AM46 °FScattered clouds.5 mph57%30.15 "HgN/A
11:00 AM46 °FScattered clouds.3 mph57%30.15 "HgN/A
10:30 AM45 °FScattered clouds.2 mph66%30.15 "HgN/A
10:00 AM43 °FScattered clouds.1 mph66%30.15 "HgN/A
9:30 AM41 °FScattered clouds.No wind70%30.15 "HgN/A
9:00 AM36 °FScattered clouds.3 mph87%30.18 "HgN/A
8:30 AM36 °FPartly sunny.2 mph81%30.18 "HgN/A
8:00 AM34 °FPartly sunny.1 mph87%30.18 "HgN/A
7:30 AM32 °FPartly sunny.3 mph87%30.18 "HgN/A
7:00 AM30 °FSunny.2 mph93%30.18 "Hg10 mi
6:30 AM30 °FClear.No wind93%30.18 "Hg10 mi
6:00 AM30 °FClear.No wind93%30.18 "Hg10 mi
5:30 AM30 °FClear.1 mph93%30.18 "Hg10 mi
5:00 AM30 °FClear.2 mph93%30.18 "Hg10 mi
4:30 AM30 °FClear.No wind93%30.18 "Hg10 mi
4:00 AM28 °FClear.No wind100%30.18 "Hg10 mi
3:30 AM28 °FClear.1 mph93%30.21 "Hg10 mi
3:00 AM27 °FPassing clouds.3 mph100%30.21 "HgN/A
2:30 AM28 °FClear.2 mph93%30.21 "Hg10 mi
2:00 AM28 °FClear.1 mph93%30.21 "Hg10 mi
1:30 AM28 °FClear.2 mph93%30.24 "Hg10 mi
1:00 AM28 °FClear.1 mph93%30.24 "Hg10 mi
Weather by CustomWeather, © 2015

See weather overviewHow to use our weather pages